Terug naar catalogus

METEOR 2-7

ActiefWeerPO
NORAD 12456·PAYLOAD·🇷🇺 Russia

Gelanceerd May 14, 1981 vanaf Plesetsk Cosmodrome

Loading…

Volgende Passages (komende 24 uur)

TLE

VersSource: Space-Track

Epoch: Sep 14, 2026, 14:41 UTC

1 12456U 81043A   26257.61182120  .00000059  00000-0  25917-4 0  9999
2 12456  81.2689  12.0954 0046491 236.2697 123.4040 14.11068864331666

Volg METEOR 2-7 in realtime met AllMySat

Download on the App Store